• In Deutschland
  • Länderverzeichnis
  • Für 7 Tage
  • Wassertemperatur
  • Satellitenkarten
  • Wetterkarte
  • Widgets
  • user-avatar
    Anmelden

    Stündliche Wetter Lennestadt

    Heute, 20 August, Montag

    Zeit Temperatur Niederschläge Wind Luftdruck Luftfeuchtigkeit
    00:00 +17°C° 0 mm 2 m/S 732 mmHg 85%
    01:00 +17°C° 0 mm 2 m/S 732 mmHg 88%
    02:00 +17°C° 0 mm 2 m/S 732 mmHg 89%
    03:00 +17°C° 0 mm 2 m/S 732 mmHg 89%
    04:00 +17°C° 0 mm 2 m/S 732 mmHg 90%
    05:00 +17°C° 0 mm 2 m/S 732 mmHg 89%
    06:00 +18°C° 0 mm 2 m/S 732 mmHg 89%
    07:00 +18°C° 0 mm 2 m/S 732 mmHg 88%
    08:00 +19°C° 0,1 mm 2 m/S 733 mmHg 84%
    09:00 +20°C° 0,1 mm 2 m/S 733 mmHg 81%
    10:00 +20°C° 0,1 mm 3 m/S 733 mmHg 78%
    11:00 +21°C° 0,1 mm 3 m/S 733 mmHg 74%
    12:00 +21°C° 0,1 mm 3 m/S 733 mmHg 70%
    13:00 +22°C° 0,1 mm 3 m/S 733 mmHg 67%
    14:00 +22°C° 0,1 mm 3 m/S 733 mmHg 67%
    15:00 +22°C° 0,1 mm 3 m/S 733 mmHg 67%
    16:00 +22°C° 0,1 mm 3 m/S 733 mmHg 67%
    17:00 +21°C° 0,1 mm 2 m/S 733 mmHg 71%
    18:00 +21°C° 0,1 mm 2 m/S 733 mmHg 75%
    19:00 +20°C° 0,1 mm 2 m/S 733 mmHg 80%
    20:00 +20°C° 0 mm 1 m/S 733 mmHg 83%
    21:00 +19°C° 0 mm 1 m/S 733 mmHg 87%
    22:00 +18°C° 0 mm 1 m/S 734 mmHg 91%
    23:00 +16°C° 0 mm 1 m/S 734 mmHg 92%

    Morgen, 21 August, Dienstag

    Zeit Temperatur Niederschläge Wind Luftdruck Luftfeuchtigkeit
    00:00 +16°C° 0 mm 1 m/S 734 mmHg 92%
    01:00 +15°C° 0 mm 0 m/S 734 mmHg 93%
    02:00 +14°C° 0 mm 0 m/S 734 mmHg 93%
    03:00 +14°C° 0 mm 0 m/S 734 mmHg 93%
    04:00 +14°C° 0 mm 0 m/S 734 mmHg 94%
    05:00 +16°C° 0 mm 1 m/S 734 mmHg 92%
    06:00 +16°C° 0 mm 1 m/S 734 mmHg 90%
    07:00 +18°C° 0 mm 1 m/S 734 mmHg 89%
    08:00 +19°C° 0,1 mm 1 m/S 734 mmHg 85%
    09:00 +19°C° 0,1 mm 1 m/S 734 mmHg 82%
    10:00 +20°C° 0,1 mm 1 m/S 735 mmHg 78%
    11:00 +22°C° 0,1 mm 1 m/S 734 mmHg 70%
    12:00 +24°C° 0,1 mm 1 m/S 734 mmHg 63%
    13:00 +26°C° 0,1 mm 1 m/S 734 mmHg 55%
    14:00 +25°C° 0,1 mm 1 m/S 734 mmHg 57%
    15:00 +23°C° 0,1 mm 0 m/S 734 mmHg 58%
    16:00 +22°C° 0,1 mm 0 m/S 733 mmHg 59%
    17:00 +21°C° 0,1 mm 0 m/S 733 mmHg 64%
    18:00 +22°C° 0,1 mm 1 m/S 733 mmHg 69%
    19:00 +21°C° 0,1 mm 1 m/S 733 mmHg 73%
    20:00 +21°C° 0 mm 1 m/S 733 mmHg 75%
    21:00 +20°C° 0 mm 1 m/S 733 mmHg 77%
    22:00 +19°C° 0 mm 1 m/S 733 mmHg 79%
    23:00 +19°C° 0 mm 1 m/S 733 mmHg 81%

    übermorgen, 22 August, Mittwoch

    Zeit Temperatur Niederschläge Wind Luftdruck Luftfeuchtigkeit
    00:00 +19°C° 0 mm 1 m/S 733 mmHg 82%
    01:00 +18°C° 0 mm 1 m/S 733 mmHg 83%
    02:00 +18°C° 0 mm 1 m/S 733 mmHg 84%
    03:00 +18°C° 0 mm 1 m/S 732 mmHg 85%
    04:00 +16°C° 0 mm 1 m/S 732 mmHg 86%
    05:00 +18°C° 0 mm 1 m/S 732 mmHg 84%
    06:00 +17°C° 0 mm 0 m/S 732 mmHg 82%
    07:00 +17°C° 0 mm 0 m/S 732 mmHg 80%
    08:00 +21°C° 0 mm 1 m/S 732 mmHg 74%
    09:00 +23°C° 0 mm 1 m/S 732 mmHg 67%
    10:00 +24°C° 0 mm 1 m/S 732 mmHg 61%
    11:00 +25°C° 0 mm 1 m/S 732 mmHg 57%
    12:00 +26°C° 0 mm 1 m/S 732 mmHg 52%
    13:00 +27°C° 0 mm 2 m/S 732 mmHg 48%
    14:00 +27°C° 0 mm 2 m/S 731 mmHg 47%
    15:00 +27°C° 0 mm 2 m/S 731 mmHg 47%
    16:00 +28°C° 0 mm 2 m/S 731 mmHg 47%
    17:00 +26°C° 0 mm 1 m/S 731 mmHg 52%
    18:00 +25°C° 0 mm 1 m/S 731 mmHg 57%
    19:00 +24°C° 0 mm 1 m/S 731 mmHg 63%
    20:00 +23°C° 0 mm 1 m/S 731 mmHg 66%
    21:00 +20°C° 0 mm 0 m/S 731 mmHg 69%
    22:00 +18°C° 0 mm 0 m/S 731 mmHg 72%
    23:00 +18°C° 0 mm 0 m/S 731 mmHg 75%

    23 August, Donnerstag

    Zeit Temperatur Niederschläge Wind Luftdruck Luftfeuchtigkeit
    00:00 +17°C° 0 mm 0 m/S 731 mmHg 78%
    01:00 +17°C° 0 mm 0 m/S 730 mmHg 80%
    02:00 +16°C° 0 mm 0 m/S 730 mmHg 83%
    03:00 +16°C° 0 mm 0 m/S 730 mmHg 85%
    04:00 +16°C° 0 mm 0 m/S 730 mmHg 87%
    05:00 +16°C° 0 mm 0 m/S 730 mmHg 85%
    06:00 +17°C° 0 mm 0 m/S 730 mmHg 83%
    07:00 +18°C° 0 mm 0 m/S 730 mmHg 81%
    08:00 +22°C° 0 mm 1 m/S 730 mmHg 73%
    09:00 +24°C° 0 mm 1 m/S 730 mmHg 66%
    10:00 +26°C° 0 mm 2 m/S 730 mmHg 58%
    11:00 +27°C° 0 mm 2 m/S 729 mmHg 54%
    12:00 +27°C° 0 mm 2 m/S 729 mmHg 51%
    13:00 +28°C° 0 mm 3 m/S 728 mmHg 47%
    14:00 +29°C° 0 mm 3 m/S 728 mmHg 46%
    15:00 +29°C° 0 mm 3 m/S 727 mmHg 45%
    16:00 +29°C° 0 mm 3 m/S 727 mmHg 44%
    17:00 +27°C° 0,4 mm 3 m/S 727 mmHg 52%
    18:00 +25°C° 0,4 mm 3 m/S 726 mmHg 60%
    19:00 +24°C° 0,4 mm 2 m/S 726 mmHg 68%
    20:00 +21°C° 0,4 mm 2 m/S 726 mmHg 73%
    21:00 +20°C° 0,4 mm 2 m/S 726 mmHg 78%
    22:00 +19°C° 0,4 mm 2 m/S 726 mmHg 84%
    23:00 +19°C° 0 mm 1 m/S 726 mmHg 86%

    24 August, Freitag

    Zeit Temperatur Niederschläge Wind Luftdruck Luftfeuchtigkeit
    00:00 +19°C° 0 mm 1 m/S 725 mmHg 88%
    01:00 +18°C° 0 mm 1 m/S 725 mmHg 90%
    02:00 +18°C° 0 mm 1 m/S 725 mmHg 91%
    03:00 +18°C° 0 mm 1 m/S 725 mmHg 91%
    04:00 +16°C° 0 mm 1 m/S 724 mmHg 92%
    05:00 +18°C° 0,5 mm 1 m/S 724 mmHg 92%
    06:00 +18°C° 0,5 mm 1 m/S 724 mmHg 92%
    07:00 +17°C° 0,5 mm 2 m/S 724 mmHg 92%
    08:00 +16°C° 0,7 mm 2 m/S 724 mmHg 91%
    09:00 +16°C° 0,7 mm 2 m/S 724 mmHg 90%
    10:00 +14°C° 0,7 mm 3 m/S 724 mmHg 90%
    11:00 +14°C° 0,1 mm 3 m/S 725 mmHg 88%
    12:00 +15°C° 0,1 mm 2 m/S 725 mmHg 86%
    13:00 +15°C° 0,1 mm 2 m/S 725 mmHg 84%
    14:00 +15°C° 0,4 mm 2 m/S 725 mmHg 84%
    15:00 +15°C° 0,4 mm 2 m/S 725 mmHg 84%
    16:00 +15°C° 0,4 mm 2 m/S 726 mmHg 84%
    17:00 +15°C° 0,5 mm 2 m/S 726 mmHg 84%
    18:00 +15°C° 0,5 mm 2 m/S 726 mmHg 84%
    19:00 +14°C° 0,5 mm 2 m/S 726 mmHg 84%
    20:00 +13°C° 0 mm 2 m/S 726 mmHg 85%
    21:00 +13°C° 0 mm 1 m/S 727 mmHg 85%
    22:00 +12°C° 0 mm 1 m/S 727 mmHg 85%
    23:00 +11°C° 0 mm 1 m/S 727 mmHg 85%

    25 August, Samstag

    Zeit Temperatur Niederschläge Wind Luftdruck Luftfeuchtigkeit
    00:00 +11°C° 0 mm 1 m/S 727 mmHg 86%
    01:00 +10°C° 0 mm 1 m/S 728 mmHg 86%
    02:00 +10°C° 0 mm 1 m/S 728 mmHg 87%
    03:00 +10°C° 0 mm 1 m/S 728 mmHg 87%
    04:00 +9°C° 0 mm 1 m/S 728 mmHg 88%
    05:00 +10°C° 0 mm 1 m/S 728 mmHg 87%
    06:00 +10°C° 0 mm 1 m/S 728 mmHg 86%
    07:00 +11°C° 0 mm 1 m/S 729 mmHg 85%
    08:00 +12°C° 0,1 mm 1 m/S 729 mmHg 79%
    09:00 +13°C° 0,1 mm 2 m/S 729 mmHg 74%
    10:00 +15°C° 0,1 mm 2 m/S 729 mmHg 68%
    11:00 +16°C° 0,2 mm 2 m/S 729 mmHg 63%
    12:00 +16°C° 0,2 mm 2 m/S 729 mmHg 59%
    13:00 +17°C° 0,2 mm 3 m/S 729 mmHg 54%
    14:00 +17°C° 0,2 mm 2 m/S 729 mmHg 52%
    15:00 +17°C° 0,2 mm 2 m/S 729 mmHg 51%
    16:00 +18°C° 0,2 mm 2 m/S 729 mmHg 50%
    17:00 +16°C° 0 mm 2 m/S 729 mmHg 54%
    18:00 +15°C° 0 mm 1 m/S 729 mmHg 59%
    19:00 +14°C° 0 mm 1 m/S 729 mmHg 63%
    20:00 +12°C° 0 mm 0 m/S 729 mmHg 66%
    21:00 +11°C° 0 mm 0 m/S 729 mmHg 68%
    22:00 +10°C° 0 mm 0 m/S 729 mmHg 71%
    23:00 +10°C° 0 mm 0 m/S 729 mmHg 73%
    Mehr zeigen